Location: México DF
(19.4326°N, 99.1332°W)
Time: 06:20:05
(UTC+00:00)

ISS - Pass Details

Date: 11 July 2024
Orbit: 410 x 424 km, 51.6° (Epoch: 15 July)

Event Time Altitude Azimuth Distance (km) Brightness Sun altitude
Rises 01:26:43 0° 218° (SW) 2,327 0.2 -2.5°
Reaches altitude 10° 01:28:48 10° 219° (SW) 1,466 -0.8 -3.0°
Maximum altitude 01:32:05 88° 302° (WNW) 411 -3.7 -3.7°
Drops below altitude 10° 01:35:23 10° 38° (NE) 1,466 -1.1 -4.4°
Sets 01:37:28 0° 39° (NE) 2,327 -0.1 -4.8°
